Regional Weather Roundup
Issued by NWS Charleston, WV

Home | Current Version | Previous Version | Text Only | Print | Product List | Glossary On
Versions: 1 2 3 4 5 6 7 8 9 10 11 12 13 14 15 16 17 18 19 20 21 22 23 24 25 26 27 28
000
ASUS41 KRLX 310510
RWRRLX
West Virginia Regional Weather Roundup
National Weather Service Charleston WV
100 AM EDT SUN JUL 31 2016

Note: "fair" indicates few or no clouds below 12,000 feet with no
significant weather and/or obstructions to visibility.

WVZ003-310600-
Northern Panhandle of West Virginia

CITY           SKY/WX    TMP DP  RH WIND       PRES   REMARKS
WHEELING       FOG       68  66  93 CALM      29.98F VSB 1/2
$$

WVZ009-310600-
Northwest West Virginia

CITY           SKY/WX    TMP DP  RH WIND       PRES   REMARKS
PARKERSBURG      N/A     71  69  93 SE3       30.00S FOG
$$

WVZ006-310600-
Western West Virginia

CITY           SKY/WX    TMP DP  RH WIND       PRES   REMARKS
HUNTINGTON       N/A     73  69  87 SW6       29.98F
$$

WVZ015-310600-
West Central West Virginia

CITY           SKY/WX    TMP DP  RH WIND       PRES   REMARKS
CHARLESTON       N/A     74  69  85 S6        30.00S
$$

WVZ022-031-310600-
North Central West Virginia

CITY           SKY/WX    TMP DP  RH WIND       PRES   REMARKS
CLARKSBURG       N/A     71  69  93 CALM      30.01S
MORGANTOWN       N/A     68  66  93 CALM      30.02S
$$

WVZ025-035-042-045-310600-
Southern West Virginia

CITY           SKY/WX    TMP DP  RH WIND       PRES   REMARKS
BECKLEY          N/A     68  63  84 MISG      30.10F
LOGAN          FOG       70  70 100 CALM      30.04S VSB<1/4
BLUEFIELD        N/A     69  66  90 CALM      30.13F
LEWISBURG        N/A     65  64  95 CALM      30.10F
$$

WVZ047-310600-
Northern Mountains of West Virginia

CITY           SKY/WX    TMP DP  RH WIND       PRES   REMARKS
ELKINS         FOG       66  63  90 W3        30.07F VSB 3/4
$$

WVZ052-310600-
Eastern Panhandle of West Virginia

CITY           SKY/WX    TMP DP  RH WIND       PRES   REMARKS
MARTINSBURG    CLOUDY    70  69  97 SE5       29.97F FOG
PETERSBURG       N/A     70  69  98 CALM      30.02F FOG
$$




USA.gov is the U.S. government's official web portal to all federal, state and local government web resources and services.